User: anonymous   Login
Location: Auckland
(36.8670°S, 174.7670°E)
Time: 05:50:04
(UTC+12:00)
Language:

Explorer 7 - Orbit

View from above orbital plane
View from above orbital plane
View from above satellite
View from above satellite

Ground track
Ground track

The orbit data is extracted from the following two-line orbital elements,

1    22U 59009A   19202.16542896 -.00000150  00000-0  12478-4 0  9995
2    22  50.2823 220.8704 0139998  69.3968 292.1932 14.94886022175611
Epoch (UTC): 21 July 2019 03:58:13
Eccentricity: 0.0139998
inclination: 50.2823°
perigee height: 485 km
apogee height: 680 km
right ascension of ascending node: 220.8704°
argument of perigee: 69.3968°
revolutions per day: 14.94886022
mean anomaly at epoch: 292.1932°
orbit number at epoch: 17561

The dashed part of the orbit path shows where the satellite is in the earth's shadow,  

DLR